Content
SEND FEEDBACK

Daily
Averages
Monthly
Summary
United States of America

LAKE PLACID, NEW YORK


Home > North America > United States > New York
Elevation: 1984 feet     Latitude: 44 15N     Longitude: 073 59W

WEATHER
 
SELECT A DAY
Number of Records: 224,748;   Date Range: 1/1/95 - 7/23/14
 
SHARE

PRINT THIS DATA

[ ← Previous Day ]
WEATHER ALMANAC - NOVEMBER 1, 2013
[ Next Day → ]
[ °C ]   °F
Weather ElementAverageHighLow
Temperature54.2 °F59 °F (7:51 am)46.9 °F (7:51 pm)
Dewpoint49.3 °F57.2 °F (8:11 am)39.2 °F (5:30 pm)
Humidity83.9 %100 % (8:11 am)58 % (1:51 pm)
Barometer29.38 in29.62 in (11:51 pm)29.25 in (7:51 am)
Wind Speed17.2 mph26.5 mph (3:51 pm)
Wind Gust43.7 mph (3:51 pm)
Weather ElementAverage
Visibility7.6 mi
Wind DirectionSW (222.4 °)

Weather ElementTotal
Precipitation1.13 in
Heating Degree Days12.1 (Base 65)
Growing Degree Days3 (Base 50)
Averaged from 33 records on November 1, 2013
WEATHER CONDITIONS BREAKOUT
WIND DIRECTION BREAKOUT
WEATHER BY HOUR - NOVEMBER 1, 2013
[ °C ]   °F
Local TimeTemperatureDewpointHumidityBarometerVisibilityWind DirectionWind SpeedGust SpeedPrecipitationEventsConditions
12:13 AM55.4 °F51.8 °F88 %29.51 in10.0 miSSW (200°)10.4 mphOvercast
12:51 AM55.9 °F52.0 °F87 %29.49 in9.0 miSSW (210°)12.7 mph19.6 mph0.01 inRainLight Rain
1:51 AM55.9 °F53.1 °F90 %29.44 in5.0 miSSW (210°)13.8 mph20.7 mph0.03 inRainLight Rain
2:51 AM55.9 °F54.0 °F93 %29.40 in5.0 miSSW (210°)12.7 mph21.9 mph0.08 inRainRain
3:07 AM55.4 °F53.6 °F94 %29.39 in6.0 miSSW (210°)17.3 mph21.9 mph0.02 inRainLight Rain
3:15 AM55.4 °F53.6 °F94 %29.38 in5.0 miSSW (200°)13.8 mph21.9 mph0.03 inRainRain
3:51 AM55.9 °F54.0 °F93 %29.36 in4.0 miSSW (210°)10.4 mph21.9 mph0.11 inRainRain
4:51 AM57.0 °F55.0 °F93 %29.32 in3.0 miSSW (200°)13.8 mph21.9 mph0.15 inRainRain
5:36 AM57.2 °F55.4 °F94 %29.30 in5.0 miSSW (200°)16.1 mph24.2 mph0.11 inRainRain
5:51 AM57.9 °F55.0 °F90 %29.29 in5.0 miSSW (200°)20.7 mph29.9 mph0.13 inRainRain
6:51 AM57.9 °F55.0 °F90 %29.26 in5.0 miSSW (210°)23.0 mph32.2 mph0.08 inRainLight Rain
7:51 AM59.0 °F55.9 °F90 %29.25 in10.0 miSSW (210°)19.6 mph28.8 mph0.02 inOvercast
8:00 AM57.2 °F55.4 °F94 %29.26 in2.5 miSW (220°)17.3 mph28.8 mph0.04 inRainHeavy Rain
8:11 AM57.2 °F57.2 °F100 %29.27 in4.0 miSSW (210°)18.4 mph27.6 mph0.06 inRainRain
8:35 AM59.0 °F55.4 °F88 %29.26 in10.0 miSW (220°)20.7 mph28.8 mph0.08 inRainLight Rain
8:51 AM57.9 °F55.0 °F90 %29.28 in7.0 miSW (220°)21.9 mph29.9 mph0.08 inRainLight Rain
9:51 AM57.9 °F54.0 °F87 %29.26 in10.0 miSW (220°)19.6 mph27.6 mph0.03 inOvercast
10:51 AM57.9 °F51.1 °F78 %29.26 in10.0 miSW (220°)23.0 mph34.5 mph0.00 inMostly Cloudy
11:51 AM54.0 °F51.1 °F90 %29.26 in2.0 miSW (230°)18.4 mph36.8 mph0.03 inRainHeavy Rain
12:02 PM53.6 °F51.8 °F94 %29.27 in4.0 miWSW (240°)19.6 mph35.7 mph0.02 inRainRain
12:51 PM55.9 °F48.0 °F75 %29.27 in10.0 miWSW (240°)21.9 mph39.1 mph0.02 inScattered Clouds
1:51 PM57.9 °F43.0 °F58 %29.27 in10.0 miWSW (240°)19.6 mph32.2 mphMostly Cloudy
2:51 PM54.0 °F42.1 °F64 %29.30 in10.0 miWSW (250°)23.0 mph41.4 mphOvercast
3:51 PM52.0 °F39.9 °F63 %29.36 in10.0 miWSW (240°)26.5 mph43.7 mphOvercast
4:51 PM50.0 °F41.0 °F71 %29.41 in10.0 miWSW (240°)20.7 mph40.3 mphOvercast
5:30 PM50.0 °F39.2 °F66 %29.44 in10.0 miSW (230°)19.6 mph36.8 mphOvercast
5:51 PM50.0 °F41.0 °F71 %29.46 in10.0 miSW (230°)19.6 mph29.9 mphOvercast
6:51 PM48.9 °F42.1 °F77 %29.51 in10.0 miWSW (240°)19.6 mph32.2 mphOvercast
7:51 PM46.9 °F42.1 °F83 %29.56 in10.0 miWSW (240°)11.5 mph25.3 mphOvercast
8:51 PM48.0 °F42.1 °F80 %29.58 in10.0 miWSW (240°)12.7 mph21.9 mphOvercast
9:51 PM48.0 °F42.1 °F80 %29.60 in10.0 miWSW (240°)9.2 mphOvercast
10:51 PM48.0 °F42.1 °F80 %29.61 in10.0 miSW (230°)12.7 mph18.4 mphOvercast
11:51 PM46.9 °F42.1 °F83 %29.62 in10.0 miSW (230°)9.2 mph18.4 mphOvercast
Hourly data recorded from KSLK, located miles away from Lake Placid, New York







STORIES FROM OUR PARTNERS